Miscellaneous Local Product
Issued by NWS North Platte, NE

Home | Current Version | Previous Version | Text Only | Print | Product List | Glossary On
Versions: 1 2 3 4 5 6 7 8 9 10 11 12 13 14 15 16 17 18 19 20 21 22 23 24 25 26 27 28 29 30 31 32 33 34 35 36 37 38 39 40 41 42 43 44 45 46 47 48 49 50
000
AXUS43 KLBF 222310
MISLBF


WESTERN AND NORTH CENTRAL NEBRASKA HOURLY WEATHER ROUNDUP
NATIONAL WEATHER SERVICE NORTH PLATTE NE
600 PM CDT FRI MAY 22 2015

***STATIONS NOT REPORTING VARIABLES SUCH AS SKY/WEATHER OR
PRESSURE ARE PROVIDED BY THE NEBRASKA DEPARTMENT OF
ROADS...RAWS...AND APRS NETWORKS...AND ARE NOT UNDER
NATIONAL WEATHER SERVICE QUALITY CONTROL***

...OBSERVATIONS IN AND NEAR THE EASTERN PANHANDLE OF NEBRASKA...

CITY           SKY/WX    TMP DP  RH WIND       PRES   REMARKS
PINE RIDGE     CLOUDY    50  42  74 SE15      30.09S
CHADRON        CLOUDY    52  44  74 SE13      30.07S
ALLIANCE       CLOUDY    48  44  86 SE16      30.05F
SIDNEY         LGT RAIN  48  46  93 SE14      30.04S FOG
WHITECLAY        N/A     46  41  82 E9          N/A
BIG SPRINGS      N/A     48  46  93 E16         N/A
$$

...OBSERVATIONS IN NORTH CENTRAL NEBRASKA...

CITY           SKY/WX    TMP DP  RH WIND       PRES   REMARKS
VALENTINE      LGT RAIN  51  44  77 SE18G28   30.15F
THEDFORD       DRIZZLE   49  43  78 SE18      30.14S
AINSWORTH      LGT RAIN  50  46  85 SE15      30.16F
O`NEILL        LGT RAIN  51  48  87 SE7       30.20F
ORD            LGT RAIN  52  45  77 E8        30.16F
BROKEN BOW     LGT RAIN  50  45  83 E12G22    30.14F
BROWNLEE         N/A     53  44  72 SE18        N/A
VALENTINE NWR    N/A     48  43  82 SE15G23     N/A
SPRINGVIEW       N/A     51  46  82 SE8G16      N/A
HALSEY           N/A     50  40  68 SE13G23     N/A
BREWSTER         N/A     52  46  78 SE15        N/A
ROSE             N/A     51  47  84 E17         N/A
NEWPORT          N/A     49  45  87 E12         N/A
SARGENT          N/A     50  46  85 SE5         N/A
COMSTOCK         N/A     52  51  95 E8          N/A
EWING            N/A     52  48  86 E6          N/A
$$

...OBSERVATIONS IN SOUTHWEST NEBRASKA AND FAR NORTHEAST COLORADO...

CITY           SKY/WX    TMP DP  RH WIND       PRES   REMARKS
WRAY           CLOUDY   N/A N/A N/A E15       30.00F
IMPERIAL       CLOUDY    49  46  90 E17G25    30.05F
OGALLALA       CLOUDY    47  45  93 E18G24    30.08S
NORTH PLATTE   LGT RAIN  47  45  93 E15       30.12S
MCCOOK         CLOUDY    51  49  92 E15       30.07F
LEXINGTON      LGT RAIN  51  48  92 E14       30.13S
PAXTON           N/A     47  45  94 E15         N/A
GOTHENBURG       N/A     48  45  91 E7          N/A
CALLAWAY         N/A     48  47  95 E14         N/A
$$

...NORTH PLATTE AREA...

CITY           SKY/WX    TMP DP  RH WIND       PRES   REMARKS
AIRPORT        LGT RAIN  47  45  93 E15       30.12S
DOWNTOWN         N/A     46  44  93 E3G12       N/A
$$

...SOME WEATHER OBSERVATIONS FROM AROUND THE REGION...

CITY           SKY/WX    TMP DP  RH WIND       PRES   REMARKS
DENVER         PTSUNNY   58  47  66 NE9       29.98S
LARAMIE        CLOUDY    48  39  71 SE8       29.98S
CHEYENNE       CLOUDY    48  42  80 SE8       30.01R
SCOTTSBLUFF    LGT RAIN  49  47  93 SE17      30.04F FOG
RAPID CITY     CLOUDY    59  42  53 S16       30.06F
PIERRE         CLOUDY    66  38  35 S20G26    30.10R
WINNER         CLOUDY    59  41  51 S23       30.16R
SIOUX FALLS    CLOUDY    69  40  34 S12       30.15S
OMAHA          PTSUNNY   65  47  52 E9        30.20F
GRAND ISLAND   LGT RAIN  54  46  74 SE9G20    30.18S
KANSAS CITY    CLOUDY    64  50  60 S6        30.22F
WICHITA        CLOUDY    62  54  74 SE13      30.14S
HAYS           CLOUDY    55  48  76 SE12      30.10F
LIBERAL        CLOUDY    63  55  77 SE17      30.05S
GOODLAND       CLOUDY    55  52  89 SE20G30   29.99F
$$



USA.gov is the U.S. government's official web portal to all federal, state and local government web resources and services.